Home   Weather   Istanbul   Past weeks
Flag for Turkey

Past Weather in Istanbul, Turkey — Yesterday and Last 2 Weeks

Now
50 °F

Sprinkles. Partly sunny.


Feels Like: 45 °F
Forecast: 49 / 51 °F
Wind: 14 mph from North

Location: Istanbul Ataturk Airport

Current Time: Nov 15, 2018 at 5:50:42 pm

Latest Report: Nov 15, 2018 at 4:50 pm


Visibility: 4 mi

Pressure: 30.09 "Hg

Humidity: 82%

Dew Point: 45 °F

Location of IstanbulLocation

Past Weather in Istanbul — Graph

°F

Istanbul Temperature Yesterday

Maximum temperature yesterday: 57 °F (at 4:50 pm)
Minimum temperature yesterday: 50 °F (at 12:14 am)
Average temperature yesterday: 53 °F

High & Low Weather Summary for the Past Weeks

 TemperatureHumidityPressure
High75 °F (Nov 1, 1:20 pm)94% (Nov 1, 7:20 am)30.39 "Hg (Nov 1, 7:20 am)
Low48 °F (Nov 15, 5:50 am)46% (Nov 12, 1:50 pm)30.09 "Hg (Nov 10, 4:50 am)
Average61 °F72%30.22 "Hg
* Reported Oct 31 4:20 pm — Nov 15 4:20 pm, Istanbul. Weather by CustomWeather, © 2018

Note: Actual official high and low records may vary slightly from our data, if they occured in-between our weather recording intervals... More about our weather records

Advertising

Istanbul Weather History for the Previous 24 Hours

Scroll right to see more
 ConditionsComfort  
Time TempWeatherWind HumidityBarometerVisibility
4:20 pm
Thu, Nov 15
48 °FSprinkles. Partly sunny.17 mph87%30.09 "Hg4 mi
3:50 pm48 °FSprinkles. Partly sunny.14 mph87%30.09 "Hg4 mi
3:20 pm48 °FSprinkles. Partly sunny.12 mph87%30.09 "Hg4 mi
2:50 pm48 °FSprinkles. Partly sunny.13 mph87%30.09 "Hg4 mi
2:20 pm48 °FSprinkles. Partly sunny.14 mph87%30.09 "Hg4 mi
1:50 pm48 °FSprinkles. Partly sunny.16 mph87%30.09 "Hg4 mi
1:20 pm50 °FLight rain. Partly sunny.12 mph88%30.09 "Hg4 mi
12:50 pm50 °FLight rain. Broken clouds.9 mph88%30.09 "Hg4 mi
12:20 pm50 °FLight rain. Broken clouds.8 mph88%30.09 "Hg4 mi
11:50 am50 °FLight rain. Partly sunny.7 mph82%30.09 "Hg4 mi
11:20 am50 °FLight rain. Partly sunny.6 mph88%30.09 "Hg4 mi
10:50 am50 °FLight rain. Partly sunny.6 mph88%30.12 "Hg4 mi
10:20 am50 °FLight rain. Partly sunny.6 mph82%30.12 "Hg4 mi
9:50 am50 °FLight rain. Partly sunny.5 mph82%30.12 "Hg4 mi
9:20 am50 °FLight rain. Partly sunny.2 mph82%30.12 "Hg4 mi
8:50 am50 °FLight rain. Partly sunny.2 mph82%30.12 "Hg4 mi
8:30 am50 °FLight rain. Partly sunny.3 mph82%30.12 "Hg4 mi
7:50 am50 °FPassing clouds.2 mph82%30.12 "HgN/A
7:20 am50 °FPassing clouds.2 mph82%30.12 "HgN/A
6:50 am50 °FPassing clouds.5 mph88%30.12 "HgN/A
6:20 am50 °FLight rain. Passing clouds.6 mph82%30.12 "HgN/A
6:06 am50 °FLight rain. Passing clouds.6 mph88%30.12 "HgN/A
5:50 am48 °FPassing clouds.5 mph87%30.12 "HgN/A
5:20 am50 °FPassing clouds.9 mph82%30.12 "HgN/A
4:50 am50 °FPassing clouds.7 mph76%30.12 "HgN/A
4:20 am50 °FPassing clouds.5 mph76%30.12 "HgN/A
3:50 am50 °FPassing clouds.6 mph76%30.15 "HgN/A
3:20 am52 °FPassing clouds.3 mph72%30.15 "HgN/A
2:50 am54 °FPassing clouds.5 mph63%30.15 "HgN/A
2:20 am54 °FPassing clouds.5 mph63%30.15 "HgN/A
1:50 am52 °FPassing clouds.5 mph67%30.15 "HgN/A
1:20 am52 °FPassing clouds.5 mph62%30.15 "HgN/A
12:50 am52 °FPassing clouds.7 mph62%30.18 "HgN/A
12:20 am52 °FPassing clouds.6 mph67%30.18 "HgN/A
11:50 pm
Wed, Nov 14
54 °FPassing clouds.6 mph63%30.18 "HgN/A
11:20 pm54 °FPassing clouds.5 mph63%30.21 "HgN/A
10:50 pm54 °FPassing clouds.7 mph58%30.21 "HgN/A
10:20 pm52 °FPassing clouds.7 mph62%30.21 "HgN/A
9:50 pm52 °FPassing clouds.8 mph67%30.21 "HgN/A
9:20 pm54 °FPassing clouds.8 mph63%30.21 "HgN/A
8:50 pm54 °FPassing clouds.10 mph63%30.21 "HgN/A
8:20 pm52 °FPassing clouds.10 mph62%30.21 "HgN/A
7:50 pm54 °FPassing clouds.9 mph58%30.21 "HgN/A
7:20 pm52 °FPassing clouds.12 mph62%30.21 "HgN/A
6:50 pm52 °FPassing clouds.10 mph67%30.21 "HgN/A
6:20 pm52 °FPassing clouds.12 mph62%30.21 "HgN/A
5:50 pm54 °FPassing clouds.12 mph63%30.21 "HgN/A
5:20 pm52 °FPartly sunny.12 mph67%30.21 "HgN/A
Weather by CustomWeather, © 2018

See weather overview